www.pogodaiklimat.ru

Погода и климат >> Архив погоды >> Австрия >> Ласницхёэ


ПОГОДА в Ласницхёэ

  • Прогноз погоды в Ласницхёэ
  • Монитор погоды в Ласницхёэ

АРХИВ ПОГОДЫ в Ласницхёэ

Время (UTC), дата Ветер
(напр.,м/с)
 
Видим.   Явления Облачность Т
(С)
Тd
(С)
f
(%)
Тe
(С)
Тes
(С)
Комфортность P
(гПа)
Po
(гПа)
Тmin
(С)
Tmax
(С)
R
(мм)
R24
(мм)
S
(см)
01 14.07 З 2 н/о н/о +15.3 +9.0 66 +15 +15 1012.2 951.3
02 14.07 З 2 н/о н/о +14.9 +9.1 68 +15 +15 1011.8 950.9
03 14.07 СЗ 1 н/о н/о +14.5 +9.2 70 +15 +15 1012.1 951.1
04 14.07 СВ 1 н/о н/о +14.9 +9.3 69 +15 +15 1012.3 951.4
05 14.07 Ю 1 н/о н/о +15.4 +10.4 72 +16 +16 1012.3 951.5
06 14.07 ЮЗ 1 н/о н/о +18.7 +11.7 64 +20 +20 1011.9 951.8 +14.4 +19.1
07 14.07 С 3 н/о н/о +19.5 +10.1 55 +21 +21 комфорт 1012.1 952.1
08 14.07 С 2 н/о н/о +20.0 +9.4 50 +22 +22 комфорт 1012.2 952.3
09 14.07 СВ 2 н/о н/о +20.1 +9.9 52 +22 +22 комфорт 1012.2 952.3
10 14.07 С 2 н/о н/о +21.7 +9.7 46 +23 +23 комфорт 1011.8 952.2
11 14.07 СВ 3 н/о н/о +22.3 +9.0 43 +24 +24 комфорт 1011.5 952.1
12 14.07 СВ 2 н/о н/о +22.7 +9.4 43 +24 +24 комфорт 1010.8 951.5
13 14.07 С 1 н/о н/о +22.7 +9.8 44 +24 +24 комфорт 1010.6 951.3
14 14.07 ЮЗ 1 н/о н/о +22.6 +7.3 37 +23 +23 комфорт 1010.4 951.1
15 14.07 ЮЗ 2 н/о н/о +21.2 +10.5 50 +23 +23 комфорт 1010.7 951.1
16 14.07 Ю 1 н/о н/о +21.3 +10.0 48 +23 +23 комфорт 1010.7 951.1
17 14.07 В 3 н/о н/о +18.6 +10.3 58 +19 +19 1011.6 951.5
18 14.07 В 2 н/о н/о +17.9 +10.0 60 +18 +18 1012.1 951.8 +17.9 +23.2
19 14.07 СВ 1 н/о н/о +17.2 +10.4 64 +18 +18 1012.7 952.2
20 14.07 С 1 н/о н/о +16.4 +10.6 69 +17 +17 1013.1 952.4
21 14.07 З 1 н/о н/о +16.3 +10.6 69 +17 +17 1013.3 952.6
22 14.07 ЮЗ 1 н/о н/о +16.2 +9.5 64 +17 +17 1013.7 952.9
23 14.07 СВ 1 н/о н/о +16.0 +8.7 62 +17 +17 1013.5 952.7
00 15.07 С 2 н/о н/о +15.8 +8.9 64 +16 +16 1013.8 952.9
01 15.07 СВ 1 н/о н/о +15.0 +8.7 66 +16 +16 1013.5 952.5
02 15.07 СВ 1 н/о н/о +14.3 +8.7 69 +15 +15 1013.3 952.2
03 15.07 СВ 1 н/о н/о +13.5 +8.5 72 +14 +14 1013.4 952.1
04 15.07 С 1 н/о н/о +13.2 +8.6 74 +13 +13 1013.9 952.5
05 15.07 С 1 н/о н/о +14.5 +9.3 71 +15 +15 1013.8 952.7
06 15.07 СВ 1 н/о н/о +15.8 +10.8 72 +17 +17 1013.9 953.1 +12.9 +18.0
07 15.07 СВ 2 н/о н/о +17.5 +10.9 65 +18 +18 1013.5 953.0
08 15.07 СВ 2 н/о н/о +20.1 +10.7 55 +22 +22 комфорт 1012.5 952.6
09 15.07 В 3 н/о н/о +20.7 +11.6 56 +23 +23 комфорт 1012.2 952.5
10 15.07 В 3 н/о н/о +20.9 +9.1 47 +23 +23 комфорт 1012.5 952.7
11 15.07 В 3 н/о н/о +20.5 +9.4 49 +22 +22 комфорт 1012.5 952.7
12 15.07 В 2 н/о н/о +20.6 +8.6 46 +23 +23 комфорт 1012.5 952.7
13 15.07 В 1 н/о н/о +20.3 +8.7 47 +23 +23 комфорт 1012.6 952.7
14 15.07 СВ 1 н/о н/о +20.0 +8.8 48 +22 +22 комфорт 1013.0 953.0
15 15.07 СВ 1 н/о н/о +20.7 +9.8 50 +23 +23 комфорт 1012.7 952.9
16 15.07 СВ 1 н/о н/о +20.5 +8.3 45 +23 +23 комфорт 1012.3 952.5
17 15.07 штиль 0 н/о н/о +20.0 +8.3 47 +21 +21 комфорт 1012.4 952.5
18 15.07 штиль 0 н/о н/о +19.0 +8.7 51 +20 +20 1012.9 952.7 +15.6 +22.0
19 15.07 СЗ 1 н/о н/о +18.1 +8.1 52 +19 +19 1013.4 953.0
20 15.07 С 1 н/о н/о +17.8 +7.7 52 +19 +19 1013.9 953.4
21 15.07 СВ 1 н/о н/о +16.2 +7.8 57 +17 +17 1014.5 953.7
22 15.07 СВ 1 н/о н/о +15.6 +8.2 61 +16 +16 1014.8 953.8
23 15.07 СВ 1 н/о н/о +15.6 +8.3 62 +16 +16 1014.8 953.8
00 16.07 С 2 н/о н/о +15.2 +8.3 63 +15 +15 1014.9 953.8
01 16.07 штиль 0 н/о н/о +15.9 +8.5 61 +16 +16 1014.5 953.6
02 16.07 З 2 н/о н/о +15.3 +8.6 64 +15 +15 1014.4 953.4
03 16.07 СВ 1 н/о н/о +14.6 +8.3 66 +15 +15 1014.6 953.4
04 16.07 СВ 2 н/о н/о +14.4 +8.4 67 +14 +14 1014.5 953.3
05 16.07 СВ 1 н/о н/о +15.1 +8.7 66 +16 +16 1014.4 953.4
06 16.07 В 1 н/о н/о +18.3 +9.8 58 +20 +20 1013.9 953.6 +14.3 +19.1
07 16.07 С 1 н/о н/о +20.2 +10.1 52 +23 +23 комфорт 1013.6 953.7
08 16.07 штиль 0 н/о н/о +21.4 +10.0 48 +23 +23 комфорт 1013.3 953.6
09 16.07 ЮЗ 1 н/о н/о +22.3 +10.9 48 +24 +24 комфорт 1012.9 953.4
10 16.07 штиль 0 н/о н/о +23.0 +11.4 48 +25 +25 комфорт 1012.5 953.2
11 16.07 ЮВ 2 н/о н/о +23.0 +11.1 47 +25 +25 комфорт 1012.4 953.1
12 16.07 Ю 1 н/о н/о +21.9 +10.8 49 +24 +24 комфорт 1012.2 952.7
13 16.07 Ю 1 н/о н/о +22.2 +10.2 46 +24 +24 комфорт 1012.1 952.6
14 16.07 Ю 1 н/о н/о +22.7 +10.6 46 +25 +25 комфорт 1011.8 952.5
15 16.07 ЮЗ 1 н/о н/о +23.2 +10.4 44 +25 +25 комфорт 1011.3 952.1
16 16.07 Ю 1 н/о н/о +23.4 +9.8 42 +25 +25 комфорт 1011.0 951.8
17 16.07 Ю 1 н/о н/о +22.7 +10.5 46 +25 +25 комфорт 1011.1 951.8
18 16.07 Ю 1 н/о н/о +22.1 +10.6 48 +24 +24 комфорт 1011.3 951.9 +17.3 +24.0 0.0
19 16.07 ЮЗ 1 н/о н/о +20.4 +10.4 53 +23 +23 комфорт 1012.1 952.3
20 16.07 СЗ 1 н/о н/о +19.9 +10.3 54 +22 +22 комфорт 1013.0 953.0
21 16.07 С 2 н/о н/о +20.0 +7.3 44 +22 +22 комфорт 1013.2 953.2
22 16.07 С 1 н/о н/о +18.8 +7.6 48 +20 +20 1013.7 953.4
23 16.07 С 2 н/о н/о +19.0 +7.8 48 +20 +20 1013.8 953.6
00 17.07 СЗ 2 н/о н/о +19.1 +7.9 48 +20 +20 1013.8 953.6
01 17.07 З 1 н/о н/о +17.9 +8.3 53 +19 +19 1014.1 953.6
02 17.07 ЮЗ 2 н/о н/о +16.5 +8.7 60 +17 +17 1013.9 953.2
03 17.07 С 1 н/о н/о +16.2 +8.1 59 +17 +17 1014.1 953.3
04 17.07 В 2 н/о н/о +14.8 +8.6 66 +15 +15 1014.5 953.4
05 17.07 СВ 1 н/о н/о +15.0 +9.7 71 +16 +16 1014.6 953.5
06 17.07 В 1 н/о н/о +17.4 +9.6 60 +18 +18 1014.1 953.6 +14.2 +22.2
07 17.07 В 2 н/о н/о +19.2 +10.5 57 +21 +21 комфорт 1013.5 953.4
08 17.07 Ю 1 н/о н/о +20.6 +11.0 54 +24 +24 комфорт 1012.9 953.1
09 17.07 Ю 1 н/о н/о +21.6 +12.4 56 +24 +24 комфорт 1012.2 952.7
10 17.07 Ю 1 н/о н/о +22.6 +12.2 52 +25 +25 комфорт 1011.8 952.5
11 17.07 ЮВ 1 н/о н/о +23.8 +10.8 44 +25 +25 комфорт 1011.1 952.0
12 17.07 ЮВ 1 н/о н/о +23.9 +10.5 43 +25 +25 комфорт 1010.9 951.8
13 17.07 Ю 1 н/о н/о +24.5 +11.5 44 +26 +26 жарко 1010.4 951.5
14 17.07 ЮВ 2 н/о н/о +24.2 +12.2 47 +26 +26 жарко 1010.2 951.3
15 17.07 ЮВ 2 н/о н/о +24.1 +12.1 47 +26 +26 жарко 1010.0 951.1
16 17.07 ЮВ 1 н/о н/о +24.1 +12.1 47 +26 +26 жарко 1009.6 950.7
17 17.07 ЮВ 2 н/о н/о +23.6 +11.4 46 +25 +25 комфорт 1009.5 950.5
18 17.07 ЮВ 1 н/о н/о +22.6 +11.6 50 +25 +25 комфорт 1010.0 950.8 +17.3 +25.4
19 17.07 ЮВ 1 н/о н/о +21.9 +12.7 56 +24 +24 комфорт 1010.6 951.2
20 17.07 СВ 2 н/о в посл. час осадки н/о +20.4 +14.1 67 +23 +23 комфорт 1011.7 952.0 0.0
21 17.07 СВ 3 н/о {осадки} н/о +18.6 +13.6 73 +19 +19 1011.9 951.8 0.0
23 17.07 ЮЗ 3 н/о осадки н/о +14.6 +13.9 96 +14 +14 1014.0 953.0 0.2
00 18.07 ЮЗ 3 н/о в посл. час осадки {ливн. осадки} н/о +14.1 +13.7 97 +13 +13 1012.9 951.8 2
01 18.07 ЮЗ 2 н/о н/о +14.0 +13.3 96 +13 +13 1011.9 950.9
02 18.07 ЮВ 1 н/о н/о +13.7 +12.9 95 +14 +14 1011.9 950.8
03 18.07 ЮЗ 2 н/о н/о +13.6 +13.1 97 +13 +13 1012.1 951.0
04 18.07 З 1 н/о н/о +13.8 +13.2 96 +14 +14 1012.2 951.1
05 18.07 СВ 2 н/о н/о +13.9 +13.3 96 +13 +13 1012.4 951.3
06 18.07 СВ 2 н/о н/о +16.2 +13.9 86 +16 +16 1012.4 951.8 +13.4 +22.7
07 18.07 В 3 н/о н/о +18.2 +14.9 81 +19 +19 1012.3 952.1
08 18.07 В 1 н/о н/о +19.7 +13.5 67 +23 +23 комфорт 1012.1 952.2
09 18.07 В 1 н/о н/о +21.3 +13.3 60 +24 +24 комфорт 1011.9 952.3
10 18.07 Ю 1 н/о н/о +23.0 +13.3 54 +26 +26 жарко 1011.3 952.1
11 18.07 Ю 1 н/о н/о +22.8 +13.3 55 +26 +26 жарко 1011.4 952.2
12 18.07 ЮЗ 3 н/о н/о +24.4 +13.2 50 +27 +27 жарко 1010.7 951.8
13 18.07 Ю 1 н/о н/о +24.4 +13.7 51 +27 +27 жарко 1010.5 951.6
14 18.07 СВ 3 н/о в посл. час осадки н/о +16.1 +14.2 88 +16 +16 1013.0 952.4 0.6
15 18.07 СВ 3 н/о ливневой дождь {осадки} н/о +15.9 +14.7 93 +15 +15 1012.8 952.1 2
16 18.07 С 2 н/о н/о +16.9 +15.4 91 +17 +17 1013.2 952.7
17 18.07 Ю 1 н/о н/о +17.3 +15.0 86 +18 +18 1013.6 953.2
18 18.07 ЮЗ 2 н/о {ливн. осадки} н/о +16.6 +14.6 88 +17 +17 1014.1 953.5 +15.2 +25.0 2
19 18.07 ЮЗ 2 н/о н/о +16.1 +14.6 91 +16 +16 1014.2 953.5
20 18.07 З 2 н/о н/о +15.7 +13.5 87 +16 +16 1014.9 954.0
21 18.07 З 1 н/о осадки н/о +16.1 +12.3 78 +17 +17 1014.8 954.0 0.1
22 18.07 С 1 н/о н/о +15.5 +12.4 82 +16 +16 1014.9 954.0
23 18.07 СВ 1 н/о н/о +16.6 +11.9 74 +17 +17 1014.9 954.2
00 19.07 ЮЗ 2 н/о {осадки} н/о +14.7 +12.6 87 +14 +14 1015.5 954.4 0.1
01 19.07 З 2 н/о н/о +13.8 +12.6 92 +13 +13 1015.5 954.2
02 19.07 ЮЗ 2 н/о н/о +13.5 +12.4 93 +13 +13 1015.8 954.4
03 19.07 ЮЗ 3 н/о н/о +13.4 +12.3 93 +12 +12 1015.8 954.4
04 19.07 ЮЗ 2 н/о н/о +13.3 +12.2 93 +13 +13 1015.8 954.4
05 19.07 ЮЗ 1 н/о н/о +13.7 +12.3 91 +14 +14 1016.0 954.6
06 19.07 ЮЗ 2 н/о н/о +16.2 +13.3 83 +16 +16 1015.6 954.8 +13.1 +16.8 0.1
07 19.07 ЮЗ 1 н/о н/о +19.5 +14.5 73 +22 +22 комфорт 1015.4 955.3
08 19.07 ЮЗ 2 н/о н/о +22.4 +14.8 62 +26 +26 жарко 1014.8 955.3
09 19.07 ЮЗ 2 н/о н/о +23.8 +14.3 55 +26 +26 жарко 1014.6 955.4
10 19.07 Ю 1 н/о в посл. час осадки н/о +25.1 +12.7 46 +27 +27 жарко 1014.4 955.4 0.1
11 19.07 Ю 1 н/о н/о +26.0 +10.2 37 +27 +27 жарко 1014.3 955.4
12 19.07 Ю 2 н/о {осадки} н/о +26.3 +11.6 40 +28 +28 жарко 1013.9 955.1 0.1
13 19.07 Ю 2 н/о н/о +26.7 +11.0 37 +28 +28 жарко 1013.5 954.8
14 19.07 Ю 1 н/о н/о +26.4 +12.5 42 +28 +28 жарко 1013.3 954.6
15 19.07 ЮВ 2 н/о в посл. час осадки н/о +26.0 +12.4 43 +28 +28 жарко 1013.4 954.6 0.1
16 19.07 СВ 3 н/о в посл. час осадки н/о +22.6 +13.9 58 +26 +26 жарко 1014.7 955.2 0.1
17 19.07 СВ 3 н/о н/о +21.2 +13.7 62 +24 +24 комфорт 1015.1 955.3
18 19.07 СВ 3 н/о н/о +20.5 +15.0 71 +24 +24 комфорт 1015.3 955.4 +15.8 +27.2
19 19.07 СВ 2 н/о н/о +19.0 +14.9 77 +21 +21 комфорт 1015.7 955.5
20 19.07 СВ 1 н/о н/о +19.0 +14.3 74 +21 +21 комфорт 1016.6 956.3
21 19.07 С 1 н/о н/о +18.5 +14.5 78 +20 +20 1016.8 956.4
22 19.07 С 1 н/о н/о +19.4 +12.8 66 +22 +22 комфорт 1016.7 956.5
23 19.07 ЮЗ 1 н/о н/о +19.6 +12.4 63 +22 +22 комфорт 1016.5 956.3
00 20.07 СВ 2 н/о н/о +17.6 +12.5 72 +18 +18 1016.6 956.0
01 20.07 ЮЗ 1 н/о н/о +18.1 +12.4 69 +19 +19 1016.3 955.8
02 20.07 штиль 0 н/о н/о +18.2 +12.4 69 +18 +18 1016.2 955.7
03 20.07 СВ 1 н/о н/о +18.0 +12.2 69 +19 +19 1016.2 955.7
04 20.07 ЮЗ 1 н/о н/о +18.4 +12.5 68 +20 +20 1016.2 955.8
05 20.07 ЮЗ 2 н/о н/о +17.4 +13.0 75 +18 +18 1016.5 955.9
06 20.07 З 1 н/о н/о +20.5 +13.9 66 +24 +24 комфорт 1015.9 956.0 +17.3 +20.6
07 20.07 Ю 1 н/о н/о +23.7 +15.1 59 +27 +27 жарко 1015.5 956.2
08 20.07 ЮЗ 1 н/о н/о +25.8 +14.7 50 +28 +28 жарко 1015.1 956.2
09 20.07 ЮЗ 1 н/о н/о +26.3 +15.2 50 +29 +29 жарко 1014.9 956.2
10 20.07 Ю 1 н/о н/о +26.1 +15.1 51 +29 +29 жарко 1014.8 956.0
11 20.07 ЮВ 2 н/о н/о +26.8 +13.8 45 +29 +29 жарко 1014.6 955.9
12 20.07 Ю 2 н/о н/о +28.0 +14.1 43 +30 +30 жарко 1014.1 955.7
13 20.07 ЮВ 1 н/о н/о +28.1 +15.3 46 +31 +31 душно 1013.7 955.4
14 20.07 Ю 1 н/о н/о +28.3 +14.8 44 +31 +31 душно 1013.4 955.1
15 20.07 ЮВ 1 н/о н/о +27.5 +15.8 49 +31 +31 душно 1013.2 954.8
16 20.07 В 1 н/о н/о +27.0 +17.3 55 +31 +31 душно 1012.8 954.4
17 20.07 В 1 н/о н/о +26.4 +16.3 54 +30 +30 душно 1013.7 955.1
18 20.07 СВ 2 н/о н/о +25.1 +17.3 62 +29 +29 душно 1014.1 955.2 +20.1 +29.0
19 20.07 СВ 1 н/о н/о +24.1 +16.2 61 +27 +27 жарко 1014.0 954.9
20 20.07 СВ 1 н/о н/о +23.3 +16.5 66 +28 +28 душно 1015.3 956.0
21 20.07 СВ 2 н/о н/о +22.1 +16.5 71 +26 +26 душно 1015.8 956.2
22 20.07 С 1 н/о н/о +21.7 +16.3 71 +25 +25 комфорт 1016.3 956.6
23 20.07 С 1 н/о н/о +21.5 +16.2 72 +25 +25 комфорт 1016.4 956.7

 

Местоположение метеостанции Ласницхёэ (Австрия): широта 47.07 долгота 15.58 высота над уровнем моря 533 м.

В архиве по умолчанию представлена погода в Ласницхёэ за последнюю неделю. Архивные данные за месяц целиком и за предыдущие месяцы, начиная с января 2011 года, Вы можете получить, выбрав интересующий диапазон дат из раскрывающегося списка и нажав кнопку "Ввод!".


*Определитесь, кто Вы:
робот инопланетянин человек

Внимание! Время в таблицах - всемирное. Для получения местного времени необходимо прибавить поправку, которая равна 1 ч.

Смотрите также архив погоды в соседних городах и на ближайших метеорологических станциях:

Погода в Граце университет (Австрия) (11 км)
Погода в Санкт Радегунд бай Грац (Австрия) (13 км)
Погода в Граце (Австрия) (14 км)
Погода на Шёкле (Австрия) (17 км)
Погода в Фельбахе (Австрия) (26 км)
Погода в Бад-Глайхенбере (Австрия) (33 км)
Погода в Лейбнице (Австрия) (33 км)
Погода в Кёфлаге (Австрия) (38 км)
Погода в Хартберге (Австрия) (38 км)
Погода в Дойчландсберге (Австрия) (38 км)

Пояснения к столбцам:

Ветер - указаны скорость ветра в м/с - средняя за 10 мин, порывы в срок и между сроками (в фигурных скобках) и направление, откуда дует ветер: С - северный, СВ - северо-восточный, В - восточный, ЮВ - юго-восточный, Ю - южный, ЮЗ - юго-западный, З - западный, СЗ - северо-западный.
Видимость - горизонтальная дальность видимости в метрах или километрах. При видимости от 1 до 10 км при отсутствии осадков обычно наблюдается дымка, при ухудшении видимости до 1 км и менее - туман. В сухую погоду видимость может ухудшаться дымом, пылью или мглою.
Явления - указаны атмосферные явления, наблюдавшиеся в срок или в последний час перед сроком; фигурными скобками обозначены явления, наблюдавшиеся между сроками (за 1-3 часа до срока); квадратными скобками обозначены град или гололедные отложения с указанием их диаметра в мм.
Облачность - указаны через наклонную черту общая и нижняя облачность в баллах и высота нижней границы облаков в метрах; квадратными скобками обозначены формы облаков: Ci - перистые, Cs - перисто-слоистые, Cc - перисто-кучевые, Ac - высококучевые, As - высокослоистые, Sc - слоисто-кучевые, Ns - слоисто-дождевые, Cu - кучевые, Cb - кучево-дождевые. Подробнее классификацию облаков см. в Атласе облаков (PDF).
T - Температура воздуха - температура, измеренная на высоте 2 м над землей.
Td - Температура точки росы - температура, при понижении до которой содержащийся в воздухе водяной пар достигнет насыщения.
f - Относительная влажность воздуха - влажноcть воздуха, измеренная на высоте 2 м над землей.
Te - Эффективная температура - температура, которую ощущает одетый по сезону человек в тени. Характеристика душности погоды. При расчете учитывается влияние влажности воздуха и скорости ветра на теплоощущения человека.
Tes - Эффективная температура на солнце - температура, которую ощущает человек, с поправкой на солнечный нагрев. Характеристика знойности погоды. Зависит от высоты солнца над горизонтом, облачности и скорости ветра. Ночью, в пасмурную погоду, а также при ветре 12 м/с и более поправка равна нулю.
P - Атмосферное давление - приведенное к уровню моря атмосферное давление.
Po - Атмосферное давление - измеренное на уровне метеостанции атмосферное давление.
Tmin - Минимальная температура - минимум температуры воздуха на высоте 2 м над землей.
Tmax - Максимальная температура - максимум температуры воздуха на высоте 2 м над землей.
R - Количество осадков - Количество выпавших осадков за период времени, мм. При наведении курсора мыши на число - период времени, за который выпало указанное количество осадков.
R24 - Количество осадков - Количество выпавших осадков за 24 часа, мм.
S - Снежный покров - Высота снежного покрова, см. При наведении курсора мыши на число - состояние снежного покрова и степень покрытия местности в баллах.